Weather Roundup
Issued by NWS

Home | Current Version | Previous Version | Text Only | Print | Product List | Glossary On
Versions: 1 2 3 4 5 6 7 8 9 10 11 12 13 14 15 16 17 18 19 20 21 22 23 24 25 26 27 28 29 30 31 32 33 34 35 36 37 38 39 40 41 42 43 44 45 46 47 48 49 50
000
NZUS93 KARX 271310
HRRWXR

CURRENT HOURLY OBSERVATIONS ACROSS
MUCH OF THE UPPER MISSISSIPPI VALLEY
NATIONAL WEATHER SERVICE LA CROSSE WI
700 AM CST THU NOV 27 2014


...SOUTHEAST MINNESOTA...


CITY           SKY/WX    TMP DP  RH WIND       PRES   REMARKS
ROCHESTER      MOCLDY    -5  -9  83 NW9       30.42R WCI -22
ROCHESTER/MAYO FAIR       1  -4  77 NW8       30.44R WCI -12
WINONA         CLEAR     10   3  72 NW14      30.46R WCI  -5
AUSTIN         PTCLDY    -6  -9  84 NW8       30.44R WCI -21
ALBERT LEA     MOCLDY    -9 -13  84 W7        30.46R WCI -24
DODGE CENTER   MOCLDY    -4  -8  84 NW9       30.42R WCI -20
PRESTON        PTCLDY     1  -4  80 NW8       30.41R WCI -13
OWATONNA       MOCLDY   -11 -17  77 W5        30.47R WCI -23
FARIBAULT      PTCLDY    -8 -11  84 W6        30.48R WCI -21
$$

...ELSEWHERE IN MINNESOTA...


CITY           SKY/WX    TMP DP  RH WIND       PRES   REMARKS
MINNEAPOLIS    PTCLDY    -2  -7  79 NW7       30.50R WCI -15
INTNL FALLS    MOCLDY   -19 -25  73 W3        30.45S
DULUTH         PTCLDY    -9 -15  75 N8        30.39R WCI -25
RED WING         N/A      0  -6  78 NW5       30.48R WCI -10
REDWOOD FALLS  PTCLDY   -11 -15  82 NW9       30.52F WCI -29
MANKATO        PTCLDY    -9 -15  77 NW7       30.49S WCI -24
WORTHINGTON    MOCLDY    -9 -11  92 CALM      30.45F
FAIRMONT       PTCLDY    -8 -15  71 NW9       30.47F WCI -25
$$

...SOUTHWEST WISCONSIN...


CITY           SKY/WX    TMP DP  RH WIND       PRES   REMARKS
LA CROSSE      CLEAR     10   2  69 N14       30.43R WCI  -6
PRAIRIE DU CHI CLOUDY    17  10  74 W12       30.39R WCI   5
BOSCOBEL       CLOUDY    20  12  71 N8        30.39R WCI  10
LONE ROCK      CLOUDY    24  13  62 NW9       30.36R WCI  14
PLATTEVILLE    CLOUDY    22  18  84 W9        30.34R WCI  12
FORT MC COY    FLURRIES  10   5  80 NW8       30.41R WCI  -2
CAMP DOUGLAS   FLURRIES  16  14  93 NW10      30.35R WCI   3
VIROQUA        CLOUDY    14  10  81 NW13      30.34R WCI   0
WIS DELLS      FLURRIES  17  13  84 NW8       30.32R WCI   6
$$

...ELSEWHERE IN WISCONSIN...


CITY           SKY/WX    TMP DP  RH WIND       PRES   REMARKS
MILWAUKEE      MOCLDY    24  17  74 NW12      30.26R WCI  13
MADISON        MOCLDY    20  14  77 NW8       30.31R WCI  10
GREEN BAY      CLOUDY    19  12  74 N13       30.29R WCI   6
EAU CLAIRE     CLEAR      0  -6  76 VRB3      30.43R
BLACK RVR FLS  FAIR       7   1  78 NW7       30.41R WCI  -5
MEDFORD        CLOUDY     5   1  81 NW10      30.31R WCI -10
WAUSAU         CLOUDY    10   5  80 NW9       30.30R WCI  -3
WIS RAPIDS     LGT SNOW  13   6  74 NW13      30.34R WCI  -2
MARSHFIELD     CLOUDY    10   3  73 NW14      30.32R WCI  -6
RICE LAKE      CLEAR     -2  -7  80 N3        30.44S
$$

...NORTHEAST IOWA...


CITY           SKY/WX    TMP DP  RH WIND       PRES   REMARKS
DECORAH        CLEAR      7   0  72 NW12G20   30.40R WCI  -9
MASON CITY     PTCLDY    -7 -12  79 NW10      30.48R WCI -25
CHARLES CITY   CLEAR      1  -8  66 NW13      30.45R WCI -16
OELWEIN        PTCLDY     7   1  78 NW14      30.42R WCI -10
$$

...ELSEWHERE IN IOWA...


CITY           SKY/WX    TMP DP  RH WIND       PRES   REMARKS
DES MOINES     PTCLDY     6  -2  69 NW10      30.51R WCI  -9
IOWA CITY      CLOUDY    18  13  80 NW17G24   30.44R WCI   3
FORT DODGE     PTCLDY    -4 -11  71 NW8       30.51R WCI -19
$$

...NORTHERN ILLINOIS...


CITY           SKY/WX    TMP DP  RH WIND       PRES   REMARKS
CHICAGO-OHARE  CLOUDY    24  19  81 NW10      30.27R WCI  14
CHICAGO-MIDWAY CLOUDY    25  19  78 W12       30.28R WCI  14
MOLINE         CLOUDY    25  19  78 NW17G23   30.38R WCI  12
ROCKFORD       FLURRIES  23  18  81 NW9       30.33R WCI  13
PEORIA         CLOUDY    27  20  75 NW8       30.38R WCI  19
$$

NOTE: "FAIR" INDICATES FEW OR NO CLOUDS BELOW 12,000 FEET WITH NO
SIGNIFICANT WEATHER AND/OR OBSTRUCTIONS TO VISIBILITY. WIND
SPEEDS ARE IN MILES-PER-HOUR.



USA.gov is the U.S. government's official web portal to all federal, state and local government web resources and services.